This demonstration page uses our WeatherBlox Daily Observations layout. Learn more.

38.88101, -77.10428

Hourly Observations for November 21, 2016

Temp ( °F °C ) Dew Point ( °F °C ) Humidity (%) Winds ( mph kmh ) Pressure ( in mb ) Visibility ( mi km ) Precip ( " mm )
12:52 am 00:52 Partly Cloudy 37 2.8 16 -8.9 42 42 W 8 13 29.91 1013 10 16.09344 0 0
1:52 am 01:52 Mostly Cloudy 37 2.8 16 -8.9 42 42 WNW 14 22 29.91 1013 10 16.09344 0 0
2:52 am 02:52 Mostly Clear 36 2.2 16 -8.9 44 44 WNW 14 22 29.91 1013 10 16.09344 0 0
3:52 am 03:52 Mostly Clear 36 2.2 16 -8.9 44 44 WSW 9 15 29.91 1013 10 16.09344 0 0
4:52 am 04:52 Mostly Clear 36 2.2 16 -8.9 44 44 WNW 9 15 29.91 1013 10 16.09344 0 0
5:52 am 05:52 Mostly Cloudy 36 2.2 16 -8.9 44 44 WSW 8 13 29.94 1014 10 16.09344 0 0
6:52 am 06:52 Partly Cloudy 36 2.2 16 -8.9 44 44 NW 8 13 29.97 1015 10 16.09344 0 0
7:52 am 07:52 Partly Cloudy 37 2.8 15 -9.4 41 41 WNW 14 22 29.97 1015 10 16.09344 0 0
8:52 am 08:52 Mostly Sunny 38 3.3 14 -10 37 37 NW 21 33 30 1016 10 16.09344 0 0
9:52 am 09:52 Mostly Sunny 40 4.4 14 -10 35 35 NW 17 28 30 1016 10 16.09344 0 0
10:52 am 10:52 Mostly Sunny 42 5.6 14 -10 32 32 NW 13 20 30 1016 10 16.09344 0 0
11:52 am 11:52 Mostly Sunny 44 6.7 13 -10.6 28 28 WNW 21 33 29.97 1015 10 16.09344 0 0
12:52 pm 12:52 Mostly Sunny 46 7.8 13 -10.6 26 26 WNW 16 26 29.97 1015 10 16.09344 0 0
1:52 pm 13:52 Sunny 46 7.8 13 -10.6 26 26 WNW 15 24 29.94 1014 10 16.09344 0 0
2:52 pm 14:52 Sunny 45 7.2 11 -11.7 25 25 WNW 18 30 29.97 1015 10 16.09344 0 0
3:52 pm 15:52 Sunny 45 7.2 12 -11.1 26 26 W 13 20 29.97 1015 10 16.09344 0 0
4:52 pm 16:52 Mostly Clear 43 6.1 12 -11.1 28 28 W 9 15 30 1016 10 16.09344 0 0
5:52 pm 17:52 Clear 41 5 13 -10.6 32 32 WNW 14 22 30.03 1017 10 16.09344 0 0
6:52 pm 18:52 Clear 40 4.4 14 -10 35 35 WNW 8 13 30.06 1018 10 16.09344 0 0
7:52 pm 19:52 Clear 39 3.9 15 -9.4 38 38 W 9 15 30.06 1018 10 16.09344 0 0
8:52 pm 20:52 Clear 38 3.3 15 -9.4 39 39 N 3 6 30.06 1018 10 16.09344 0 0
9:52 pm 21:52 Clear 37 2.8 16 -8.9 42 42 NNW 7 11 30.09 1019 10 16.09344 0 0
10:52 pm 22:52 Clear 37 2.8 15 -9.4 41 41 WNW 16 26 30.09 1019 10 16.09344 0 0
11:52 pm 23:52 Clear 37 2.8 15 -9.4 41 41 WNW 20 31 30.09 1019 10 16.09344 0 0

Powered by AerisWeather